DAL1882 TJSJ-KATL

Flight info

Callsign DAL1882
Flight time N/A
Altitude 40000
Route ACONY3 PALDE DCT DONQU Y185 MANLE Q89 SHRKS DCT LAIRI DCT LARZZ JJEDI4
Aircraft A359/H-SDE2E3GHIJ3J4J5LM1ORWXY/LB1D1

Departure

Time N/A
Airport Luis Munoz Marin International Airport (TJSJ)

Arrival

Time 2026-05-06 22:39
Airport Hartsfield Jackson Atlanta International Airport (KATL)
Time Latitude Longitude Altitude Speed Heading
2026-05-06 21:43 29.43778 -80.94267 40066 ft 435 kts 331°
2026-05-06 21:44 29.49374 -80.96900 40058 ft 435 kts 331°
2026-05-06 21:44 29.54973 -80.99537 40057 ft 434 kts 330°
2026-05-06 21:45 29.60559 -81.02166 40056 ft 434 kts 331°
2026-05-06 21:45 29.66141 -81.04793 40053 ft 433 kts 331°
2026-05-06 21:46 29.71719 -81.07427 40064 ft 433 kts 331°
2026-05-06 21:46 29.77296 -81.10064 40062 ft 433 kts 331°
2026-05-06 21:47 29.82700 -81.13040 40072 ft 426 kts 322°
2026-05-06 21:47 29.87632 -81.16764 40062 ft 423 kts 320°
2026-05-06 21:48 29.92474 -81.20609 40062 ft 422 kts 320°
2026-05-06 21:48 29.97300 -81.24472 40065 ft 422 kts 320°
2026-05-06 21:49 30.02134 -81.28328 40058 ft 423 kts 320°
2026-05-06 21:49 30.06981 -81.32192 40064 ft 424 kts 319°
2026-05-06 21:50 30.11834 -81.36065 40083 ft 424 kts 319°
2026-05-06 21:50 30.16652 -81.39908 40056 ft 423 kts 319°
2026-05-06 21:51 30.21485 -81.43775 40053 ft 422 kts 319°
2026-05-06 21:51 30.26319 -81.47650 40035 ft 422 kts 319°
2026-05-06 21:52 30.31147 -81.51522 40036 ft 422 kts 319°
2026-05-06 21:52 30.35983 -81.55403 40036 ft 422 kts 319°
2026-05-06 21:53 30.40812 -81.59282 40010 ft 422 kts 319°
2026-05-06 21:53 30.45604 -81.63137 40008 ft 422 kts 319°
2026-05-06 21:54 30.50429 -81.67023 40009 ft 423 kts 319°
2026-05-06 21:54 30.55279 -81.70936 40007 ft 424 kts 319°
2026-05-06 21:55 30.60127 -81.74850 40011 ft 425 kts 319°
2026-05-06 21:55 30.65290 -81.78322 40017 ft 431 kts 325°
2026-05-06 21:56 30.70654 -81.81474 40028 ft 433 kts 326°
2026-05-06 21:56 30.72437 -81.82501 40020 ft 432 kts 326°
2026-05-06 21:57 30.75092 -81.84023 40019 ft 432 kts 326°
2026-05-06 21:57 30.80481 -81.87123 40022 ft 432 kts 326°
2026-05-06 21:58 30.85861 -81.90240 40018 ft 432 kts 326°
2026-05-06 21:58 30.90283 -81.92808 40016 ft 432 kts 326°
2026-05-06 21:59 30.94256 -81.95120 40015 ft 432 kts 326°
2026-05-06 22:00 30.99630 -81.98251 40037 ft 432 kts 326°
2026-05-06 22:00 31.05009 -82.01375 40015 ft 432 kts 326°
2026-05-06 22:01 31.10379 -82.04507 40016 ft 432 kts 326°
2026-05-06 22:01 31.15755 -82.07648 40018 ft 432 kts 326°
2026-05-06 22:02 31.21127 -82.10785 40022 ft 432 kts 326°
2026-05-06 22:02 31.26497 -82.13925 40022 ft 432 kts 326°
2026-05-06 22:03 31.30953 -82.16535 40027 ft 431 kts 325°
2026-05-06 22:03 31.36326 -82.19684 40022 ft 431 kts 325°
2026-05-06 22:04 31.41687 -82.22829 40024 ft 431 kts 325°
2026-05-06 22:04 31.47041 -82.25984 40023 ft 431 kts 325°
2026-05-06 22:05 31.52397 -82.29144 40025 ft 431 kts 325°
2026-05-06 22:05 31.57759 -82.32300 40040 ft 431 kts 325°
2026-05-06 22:06 31.63111 -82.35450 40017 ft 430 kts 324°
2026-05-06 22:06 31.68448 -82.38606 40018 ft 429 kts 324°
2026-05-06 22:07 31.73752 -82.41749 40025 ft 430 kts 324°
2026-05-06 22:07 31.79088 -82.44914 40026 ft 430 kts 324°
2026-05-06 22:08 31.84431 -82.48087 40026 ft 430 kts 324°
2026-05-06 22:08 31.89764 -82.51251 40018 ft 427 kts 324°
2026-05-06 22:09 31.95016 -82.54438 40013 ft 420 kts 320°
2026-05-06 22:09 31.99589 -82.58524 39973 ft 410 kts 312°
2026-05-06 22:10 32.01750 -82.60700 39736 ft 408 kts 312°
2026-05-06 22:10 32.03903 -82.62886 39505 ft 408 kts 311°
2026-05-06 22:10 32.06054 -82.65076 39267 ft 409 kts 312°
2026-05-06 22:10 32.08210 -82.67274 39036 ft 410 kts 311°
2026-05-06 22:11 32.10368 -82.69476 38818 ft 411 kts 312°
2026-05-06 22:11 32.12535 -82.71687 38581 ft 411 kts 312°
2026-05-06 22:11 32.14668 -82.73865 38336 ft 412 kts 312°
2026-05-06 22:11 32.16836 -82.76079 38071 ft 411 kts 312°
2026-05-06 22:12 32.19027 -82.78321 37815 ft 412 kts 312°
2026-05-06 22:12 32.21163 -82.80512 37554 ft 413 kts 312°
2026-05-06 22:12 32.23337 -82.82742 37295 ft 414 kts 312°
2026-05-06 22:12 32.25507 -82.84966 36873 ft 411 kts 312°
2026-05-06 22:13 32.27664 -82.87178 36265 ft 410 kts 313°
2026-05-06 22:13 32.29813 -82.89387 35620 ft 409 kts 313°
2026-05-06 22:13 32.31965 -82.91600 34935 ft 410 kts 313°
2026-05-06 22:13 32.34126 -82.93824 34203 ft 413 kts 314°
2026-05-06 22:14 32.36302 -82.96063 33406 ft 416 kts 314°
2026-05-06 22:14 32.38481 -82.98306 32785 ft 414 kts 314°
2026-05-06 22:14 32.40647 -83.00537 32189 ft 411 kts 314°
2026-05-06 22:14 32.42806 -83.02753 31626 ft 409 kts 314°
2026-05-06 22:15 32.44952 -83.04963 31017 ft 409 kts 314°
2026-05-06 22:15 32.47094 -83.07172 30419 ft 408 kts 314°
2026-05-06 22:15 32.49229 -83.09375 29776 ft 407 kts 314°
2026-05-06 22:15 32.51355 -83.11569 29169 ft 404 kts 314°
2026-05-06 22:16 32.53468 -83.13749 28562 ft 401 kts 314°
2026-05-06 22:16 32.55537 -83.15885 27996 ft 398 kts 314°
2026-05-06 22:16 32.57618 -83.18035 27417 ft 395 kts 314°
2026-05-06 22:16 32.59686 -83.20174 26822 ft 393 kts 313°
2026-05-06 22:17 32.61737 -83.22301 26254 ft 391 kts 313°
2026-05-06 22:17 32.63778 -83.24421 25676 ft 389 kts 313°
2026-05-06 22:17 32.65807 -83.26528 25090 ft 387 kts 313°
2026-05-06 22:17 32.67831 -83.28631 24506 ft 386 kts 313°
2026-05-06 22:18 32.69847 -83.30728 23907 ft 385 kts 313°
2026-05-06 22:18 32.71864 -83.32827 23290 ft 385 kts 313°
2026-05-06 22:18 32.73870 -83.34915 22640 ft 382 kts 313°
2026-05-06 22:18 32.75860 -83.36987 22032 ft 378 kts 313°
2026-05-06 22:19 32.77831 -83.39040 21423 ft 375 kts 313°
2026-05-06 22:19 32.79784 -83.41076 20813 ft 373 kts 313°
2026-05-06 22:19 32.81728 -83.43105 20215 ft 371 kts 313°
2026-05-06 22:19 32.83660 -83.45123 19604 ft 369 kts 313°
2026-05-06 22:20 32.85586 -83.47135 18994 ft 368 kts 313°
2026-05-06 22:20 32.87502 -83.49140 18377 ft 367 kts 313°
2026-05-06 22:20 32.89416 -83.51142 17666 ft 367 kts 313°
2026-05-06 22:20 32.91315 -83.53128 17333 ft 356 kts 313°
2026-05-06 22:21 32.93126 -83.55012 17201 ft 334 kts 312°
2026-05-06 22:21 32.94838 -83.56798 16785 ft 322 kts 311°
2026-05-06 22:21 32.96498 -83.58544 16284 ft 315 kts 311°
2026-05-06 22:21 32.98140 -83.60270 15794 ft 315 kts 311°
2026-05-06 22:22 32.99781 -83.61993 15333 ft 314 kts 311°
2026-05-06 22:22 33.01419 -83.63713 14821 ft 314 kts 311°
2026-05-06 22:22 33.03055 -83.65430 14332 ft 313 kts 311°
2026-05-06 22:22 33.04684 -83.67140 13843 ft 313 kts 311°
2026-05-06 22:23 33.06319 -83.68859 13312 ft 313 kts 311°
2026-05-06 22:23 33.07935 -83.70553 13082 ft 303 kts 311°
2026-05-06 22:23 33.09482 -83.72171 12942 ft 290 kts 311°
2026-05-06 22:23 33.10968 -83.73727 12811 ft 279 kts 311°
2026-05-06 22:24 33.12409 -83.75245 12547 ft 275 kts 311°
2026-05-06 22:24 33.13841 -83.76760 12185 ft 276 kts 311°
2026-05-06 22:24 33.15278 -83.78284 11797 ft 276 kts 311°
2026-05-06 22:24 33.16695 -83.79784 11423 ft 276 kts 312°
2026-05-06 22:25 33.18152 -83.81323 11031 ft 276 kts 312°
2026-05-06 22:25 33.19570 -83.82828 10664 ft 276 kts 311°
2026-05-06 22:25 33.20939 -83.84420 10288 ft 274 kts 309°
2026-05-06 22:25 33.22276 -83.86046 9909 ft 274 kts 309°
2026-05-06 22:26 33.23614 -83.87669 9522 ft 275 kts 309°
2026-05-06 22:26 33.24964 -83.89295 9129 ft 276 kts 309°
2026-05-06 22:26 33.26316 -83.90916 8758 ft 275 kts 309°
2026-05-06 22:26 33.27665 -83.92529 8386 ft 274 kts 309°
2026-05-06 22:27 33.29013 -83.94139 8055 ft 273 kts 309°
2026-05-06 22:27 33.30354 -83.95745 7948 ft 274 kts 309°
2026-05-06 22:27 33.31701 -83.97360 7943 ft 274 kts 309°
2026-05-06 22:27 33.33048 -83.98972 7884 ft 274 kts 309°
2026-05-06 22:28 33.34388 -84.00575 7781 ft 273 kts 309°
2026-05-06 22:28 33.35840 -84.02068 7654 ft 280 kts 321°
2026-05-06 22:28 33.37693 -84.02887 7545 ft 291 kts 347°
2026-05-06 22:28 33.39732 -84.03034 7422 ft 295 kts 354°
2026-05-06 22:29 33.41787 -84.03053 7299 ft 295 kts 354°
2026-05-06 22:29 33.43842 -84.03070 7154 ft 296 kts 354°
2026-05-06 22:29 33.45903 -84.03096 7037 ft 296 kts 354°
2026-05-06 22:29 33.47958 -84.03152 6913 ft 295 kts 353°
2026-05-06 22:30 33.50008 -84.03239 6795 ft 295 kts 353°
2026-05-06 22:30 33.51999 -84.03323 6663 ft 285 kts 353°
2026-05-06 22:30 33.53955 -84.03405 6442 ft 277 kts 353°
2026-05-06 22:30 33.55857 -84.03484 6200 ft 270 kts 352°
2026-05-06 22:31 33.57716 -84.03564 5944 ft 264 kts 352°
2026-05-06 22:31 33.59530 -84.03642 5700 ft 259 kts 352°
2026-05-06 22:31 33.61310 -84.03718 5449 ft 254 kts 352°
2026-05-06 22:31 33.63008 -84.04020 5185 ft 239 kts 332°
2026-05-06 22:32 33.64278 -84.05122 4936 ft 218 kts 302°
2026-05-06 22:32 33.64904 -84.06700 4726 ft 206 kts 272°
2026-05-06 22:32 33.64797 -84.08385 4695 ft 203 kts 256°
2026-05-06 22:32 33.64474 -84.10036 4698 ft 203 kts 253°
2026-05-06 22:33 33.64124 -84.11682 4702 ft 203 kts 253°
2026-05-06 22:33 33.63772 -84.13322 4701 ft 203 kts 253°
2026-05-06 22:33 33.63425 -84.14963 4700 ft 203 kts 254°
2026-05-06 22:33 33.63226 -84.16648 4701 ft 205 kts 263°
2026-05-06 22:34 33.63190 -84.18362 4709 ft 206 kts 266°
2026-05-06 22:34 33.63191 -84.20084 4529 ft 206 kts 266°
2026-05-06 22:34 33.63189 -84.21799 4233 ft 205 kts 266°
2026-05-06 22:34 33.63185 -84.23506 3930 ft 205 kts 266°
2026-05-06 22:35 33.63185 -84.25213 3661 ft 204 kts 266°
2026-05-06 22:35 33.63186 -84.26879 3386 ft 199 kts 265°
2026-05-06 22:35 33.63187 -84.28479 3149 ft 182 kts 265°
2026-05-06 22:35 33.63187 -84.29938 2948 ft 170 kts 264°
2026-05-06 22:36 33.63184 -84.31339 2705 ft 166 kts 265°
2026-05-06 22:36 33.63186 -84.32663 2495 ft 151 kts 266°
2026-05-06 22:36 33.63187 -84.33873 2303 ft 138 kts 266°
2026-05-06 22:36 33.63186 -84.34974 2119 ft 125 kts 265°
2026-05-06 22:37 33.63186 -84.35995 1976 ft 122 kts 266°
2026-05-06 22:37 33.63211 -84.37035 1794 ft 125 kts 268°
2026-05-06 22:37 33.63183 -84.38098 1642 ft 130 kts 266°
2026-05-06 22:37 33.63197 -84.39184 1476 ft 131 kts 264°
2026-05-06 22:38 33.63178 -84.40275 1301 ft 130 kts 270°
2026-05-06 22:38 33.63192 -84.41358 1140 ft 129 kts 263°
2026-05-06 22:38 33.63185 -84.42406 1046 ft 125 kts 264°
2026-05-06 22:38 33.63182 -84.43321 1043 ft 81 kts 270°
2026-05-06 22:39 33.63183 -84.43702 1042 ft 31 kts 270°
2026-05-06 22:39 33.63183 -84.43929 1039 ft 21 kts 270°
2026-05-06 22:39 33.63204 -84.44090 1040 ft 20 kts 286°
2026-05-06 22:39 33.63261 -84.44230 1041 ft 14 kts 302°
2026-05-06 22:40 33.63345 -84.44244 1041 ft 14 kts 38°
2026-05-06 22:40 33.63441 -84.44198 1041 ft 17 kts
2026-05-06 22:40 33.63539 -84.44196 1043 ft 12 kts
2026-05-06 22:40 33.63632 -84.44190 1042 ft 12 kts 19°
2026-05-06 22:41 33.63665 -84.43994 1042 ft 16 kts 89°
2026-05-06 22:42 33.63665 -84.43866 1042 ft 19 kts 90°
2026-05-06 22:42 33.63665 -84.43697 1042 ft 21 kts 90°
2026-05-06 22:42 33.63666 -84.43506 1041 ft 24 kts 89°
2026-05-06 22:42 33.63665 -84.43296 1041 ft 26 kts 90°
2026-05-06 22:43 33.63666 -84.43073 1041 ft 28 kts 89°
2026-05-06 22:43 33.63665 -84.42885 1041 ft 20 kts 89°
2026-05-06 22:43 33.63674 -84.42759 1042 ft 12 kts 56°
2026-05-06 22:43 33.63761 -84.42735 1042 ft 15 kts
2026-05-06 22:44 33.63847 -84.42734 1042 ft 10 kts
2026-05-06 22:44 33.63915 -84.42725 1042 ft 8 kts 31°
2026-05-06 22:44 33.63940 -84.42668 1042 ft 5 kts 79°
2026-05-06 22:44 33.63942 -84.42642 1042 ft 2 kts 88°
2026-05-06 22:45 33.63942 -84.42634 1042 ft 0 kts 89°